sat.trackr.live / text

‹ back to catalog

STARLINK-35701

NORAD 67118 · 2025-299S

PAYLOAD ACTIVE UNKNOWN

§ Identity

Operator
Country
US
Launch date
2025-12-15
Launch site
AFETR
Launch vehicle
Mass (kg)
RCS (m²)

Purposes: comms

External: N2YO · Heavens-Above · Gunter

§ Orbital elements

Epoch: 2026-09-19T03:14:19.775040Z

Period
94.27 min
Inclination
42.9999°
Eccentricity
0.0001457
Mean motion
15.27581800 rev/d
Perigee alt
482.0 km
Apogee alt
484.0 km
Semi-major
6,861.2 km
B*
3.9595e-4
RAAN
156.2968°
Arg perigee
274.1219°
Mean anomaly
85.9466°
Rev number
4,270

§ Raw data

STARLINK-357011 67118U 25299S   26262.13495110  .00010650  00000+0  39595-3 0  99972 67118  42.9999 156.2968 0001457 274.1219  85.9466 15.27581800 42705

JSON: /api/v1/satellites/67118 · /tle

For live sub-satellite position, see the globe view (requires WebGL).

§ Visibility from observer

Set your observer location to see the next 7 days of passes ≥ 10°. The values pass through the URL so the page stays shareable.

No JS? Fill the form by hand. The geolocation button needs JavaScript.